Weather in Pogorelka

Russia / Yaroslavl Oblast     58°05′29″N   38°24′14″E
temp.,
°C
wind,
m/s
gust,
m/s
humid.,
%
clouds,
%
prec.,
mm/h
press.,
hPa
HPBL,
m
17 april, sat
sat1700:00+6ene412745 0.0 1027429
03:00+4ene4128023 0.0 1028386
06:00+3ene412815 0.0 1028368
09:00+8e59572 0.0 1028573
12:00+12ene57430 0.0 1028967
15:00+13ene57362 0.0 10271136
18:00+12ene48445 0.0 1026828
21:00+7ene311665 0.0 1027260
18 april, sun
sun1800:00+5ene310790 0.0 1027250
03:00+3ene310850 0.0 1027248
06:00+3ne311850 0.0 1027286
09:00+8ene59624 0.0 1027856
12:00+11ene58424 0.0 10261500
15:00+12ene684312 0.0 10271787
18:00+10ene5857100 0.0 10271125
21:00+6ene51075100 0.0 1029646
19 april, mon
mon1900:00+5e497676 0.0 1029644
03:00+3ene497681 0.0 1030519
06:00+2ene497198 0.0 1030492
09:00+4e575836 0.0 1031725
12:00+8e574533 0.0 10301304
15:00+9ese5741100 0.0 10301530
18:00+7ese4849100 0.0 10291354
21:00+6ese41050100 0.0 1030727
20 april, tue
tue2000:00+4e4115491 0.0 1030680
03:00+2e41262100 0.0 1029510
06:00+1e51263100 0.0 1028562
09:00+5ese6105466 0.0 1027794
12:00+8ese71050100 0.0 10261193
15:00+11ese7114864 0.0 10221335
18:00+9ese71451100 0.0 10201332
21:00+7ese81651100 0.0 10181104
21 april, wed
wed2100:00+5ese81774100 0.6 10141055
03:00+4ese81885100 2.1 10101129
06:00+3ese71790100 1.9 1007901
09:00+5ese71790100 2.4 10051011
12:00+7ese81890100 1.8 10021421
15:00+7sse81588100 4.4 10001385
18:00+5s71396100 1.2 10021044
21:00+5s71491100 1.6 1005883